GW1125 Weather Reports


time (UTC)temp
C
wind
direction
speed
KPH
gust
KPH
rain 1hr
cm
rain 24hr
cm
rain mn
cm
humidity
%
barometer
mb
20260503211117 26 115 1.6 4.8 0.00 0.00 0.00 39 1010.2
20260503210617 26 124 1.6 3.2 0.00 0.00 0.00 39 1010.1
20260503210117 26 93 1.6 4.8 0.00 0.00 0.00 40 1010.3
20260503205657 26 18 3.2 6.4 0.00 0.00 0.00 40 1010.3
20260503205137 26 124 1.6 3.2 0.00 0.00 0.00 42 1010.4
20260503204617 25 87 1.6 3.2 0.00 0.00 0.00 44 1010.4
20260503204117 25 95 1.6 3.2 0.00 0.00 0.00 44 1010.5
20260503203657 25 95 1.6 4.8 0.00 0.00 0.00 44 1010.6
20260503203117 25 81 3.2 6.4 0.00 0.00 0.00 44 1010.7
20260503202617 25 177 3.2 4.8 0.00 0.00 0.00 44 1010.6
20260503202117 25 322 3.2 11.3 0.00 0.00 0.00 44 1010.8
20260503201617 25 153 3.2 9.7 0.00 0.00 0.00 45 1010.8
20260503201118 25 96 0.0 3.2 0.00 0.00 0.00 45 1010.9
20260503200657 24 345 1.6 9.7 0.00 0.00 0.00 46 1010.9
20260503200117 24 12 1.6 4.8 0.00 0.00 0.00 47 1011.0
20260503195617 23 119 3.2 6.4 0.00 0.00 0.00 48 1011.1
20260503195117 24 317 6.4 11.3 0.00 0.00 0.00 47 1011.2
20260503194657 24 328 4.8 11.3 0.00 0.00 0.00 46 1011.1
20260503194117 23 45 1.6 9.7 0.00 0.00 0.00 49 1011.3
20260503193617 23 72 4.8 11.3 0.00 0.00 0.00 50 1011.4
20260503193117 23 145 1.6 3.2 0.00 0.00 0.00 51 1011.4
20260503192618 23 110 1.6 3.2 0.00 0.00 0.00 52 1011.5
20260503192117 23 297 3.2 9.7 0.00 0.00 0.00 52 1011.7
20260503191618 23 48 3.2 6.4 0.00 0.00 0.00 53 1011.8
20260503191117 23 296 3.2 11.3 0.00 0.00 0.00 51 1011.7
20260503190657 22 38 3.2 4.8 0.00 0.00 0.00 53 1011.7
20260503190117 23 71 1.6 4.8 0.00 0.00 0.00 51 1011.9
20260503185617 22 0.0 0.0 0.00 0.00 0.00 51 1012.0
20260503185117 22 62 3.2 9.7 0.00 0.00 0.00 53 1011.9
20260503184617 22 80 4.8 6.4 0.00 0.00 0.00 51 1012.0
20260503184116 22 41 3.2 9.7 0.00 0.00 0.00 53 1012.3
20260503183617 22 73 1.6 3.2 0.00 0.00 0.00 53 1012.1
20260503183118 21 64 3.2 4.8 0.00 0.00 0.00 53 1012.3
20260503182617 21 56 3.2 4.8 0.00 0.00 0.00 54 1012.3
20260503182117 21 63 3.2 4.8 0.00 0.00 0.00 54 1012.4
20260503181618 22 57 3.2 6.4 0.00 0.00 0.00 54 1012.4
20260503181117 21 0.0 0.0 0.00 0.00 0.00 57 1012.4
20260503180637 21 201 1.6 6.4 0.00 0.00 0.00 56 1012.4
20260503180117 21 78 3.2 4.8 0.00 0.00 0.00 57 1012.4
20260503175617 21 42 1.6 4.8 0.00 0.00 0.00 58 1012.4
20260503175117 21 143 1.6 3.2 0.00 0.00 0.00 57 1012.6
20260503174617 21 77 4.8 9.7 0.00 0.00 0.00 59 1012.5
20260503174137 21 0.0 0.0 0.00 0.00 0.00 60 1012.5
20260503173617 20 293 1.6 4.8 0.00 0.00 0.00 61 1012.7
20260503173117 20 100 0.0 1.6 0.00 0.00 0.00 62 1012.6
20260503172617 20 300 3.2 6.4 0.00 0.00 0.00 63 1012.6
20260503172117 20 89 1.6 4.8 0.00 0.00 0.00 65 1012.8
20260503171617 19 82 3.2 4.8 0.00 0.00 0.00 66 1012.8
20260503171117 19 93 0.0 1.6 0.00 0.00 0.00 67 1012.8
20260503170618 18 76 1.6 4.8 0.00 0.00 0.00 68 1012.8
20260503170137 18 83 0.0 3.2 0.00 0.00 0.00 67 1012.9
20260503160117 16 307 3.2 6.4 0.00 0.00 0.00 78 1013.2
20260503150637 15 0.0 0.0 0.00 0.00 0.00 87 1013.3
20260503150117 14 0.0 0.0 0.00 0.00 0.00 89 1013.3
20260503140117 11 0.0 0.0 0.00 0.00 0.00 99 1013.3
20260503131118 10 0.0 0.0 0.00 0.00 0.00 98 1013.4
20260503130617 10 0.0 0.0 0.00 0.00 0.00 98 1013.4
20260503130118 10 0.0 0.0 0.00 0.00 0.00 98 1013.1
20260503120117 11 0.0 0.0 0.00 0.00 0.00 96 1013.3
20260503110617 11 0.0 0.0 0.00 0.00 0.00 95 1013.4
20260503110156 11 0.0 0.0 0.00 0.00 0.00 95 1013.4
20260503100118 11 0.0 0.0 0.00 0.00 0.00 94 1013.5
20260503090117 12 0.0 0.0 0.00 0.00 0.00 90 1013.5
20260503081617 13 0.0 0.0 0.00 0.00 0.00 84 1013.7
20260503081118 13 0.0 0.0 0.00 0.00 0.00 82 1013.7
20260503080617 13 0.0 0.0 0.00 0.00 0.00 81 1013.6
20260503080117 13 0.0 0.0 0.00 0.00 0.00 79 1013.6
20260503072617 13 0.0 0.0 0.00 0.00 0.00 74 1013.5
20260503072117 14 0.0 0.0 0.00 0.00 0.00 74 1013.4
20260503071617 14 0.0 0.0 0.00 0.00 0.00 74 1013.4
20260503071117 14 0.0 0.0 0.00 0.00 0.00 73 1013.4
20260503070617 14 0.0 0.0 0.00 0.00 0.00 73 1013.5
20260503070117 14 0.0 0.0 0.00 0.00 0.00 71 1013.4
20260503060117 15 0.0 0.0 0.00 0.00 0.00 69 1013.1
20260503055117 16 0.0 0.0 0.00 0.00 0.00 66 1013.0
20260503054617 16 0.0 0.0 0.00 0.00 0.00 65 1013.1
20260503054118 16 0.0 0.0 0.00 0.00 0.00 66 1013.0
20260503053617 17 0.0 0.0 0.00 0.00 0.00 65 1012.9
20260503053117 17 0.0 0.0 0.00 0.00 0.00 62 1012.9
20260503052618 17 0.0 0.0 0.00 0.00 0.00 63 1013.0
20260503052117 17 0.0 0.0 0.00 0.00 0.00 62 1012.9
20260503051617 17 0.0 0.0 0.00 0.00 0.00 62 1012.9
20260503051117 17 0.0 0.0 0.00 0.00 0.00 64 1012.8
20260503050617 17 0.0 0.0 0.00 0.00 0.00 66 1012.9
20260503050117 17 0.0 0.0 0.00 0.00 0.00 67 1012.7
20260503045616 17 0.0 0.0 0.00 0.00 0.00 69 1012.7
20260503045138 17 87 0.0 1.6 0.00 0.00 0.00 70 1012.6
20260503044617 17 0.0 0.0 0.00 0.00 0.00 70 1012.5
20260503044117 17 0.0 0.0 0.00 0.00 0.00 68 1012.6
20260503043617 17 0.0 0.0 0.00 0.00 0.00 68 1012.6
20260503043117 17 0.0 0.0 0.00 0.00 0.00 67 1012.6
20260503042617 17 0.0 0.0 0.00 0.00 0.00 67 1012.5
20260503042117 18 0.0 0.0 0.00 0.00 0.00 66 1012.7
20260503041617 18 0.0 0.0 0.00 0.00 0.00 66 1012.4
20260503041117 18 0.0 0.0 0.00 0.00 0.00 66 1012.4
20260503040657 18 0.0 0.0 0.00 0.00 0.00 65 1012.3
20260503040117 18 0.0 0.0 0.00 0.00 0.00 63 1012.1
20260503035617 18 0.0 0.0 0.00 0.00 0.00 63 1012.2
20260503035117 18 102 0.0 1.6 0.00 0.00 0.00 63 1012.0
20260503034617 18 0.0 0.0 0.00 0.00 0.00 64 1011.9
20260503034117 19 0.0 0.0 0.00 0.00 0.00 64 1011.9
20260503033637 19 84 1.6 4.8 0.00 0.00 0.00 61 1011.9
20260503033117 19 0.0 0.0 0.00 0.00 0.00 63 1011.8
20260503032616 20 0.0 0.0 0.00 0.00 0.00 62 1011.7
20260503032117 20 0.0 0.0 0.00 0.00 0.00 61 1011.6
20260503031638 20 0.0 0.0 0.00 0.00 0.00 61 1011.8
20260503031137 20 0.0 0.0 0.00 0.00 0.00 61 1011.6
20260503030617 20 0.0 0.0 0.00 0.00 0.00 59 1011.5
20260503030117 20 74 1.6 3.2 0.00 0.00 0.00 58 1011.6
20260503025617 21 0.0 0.0 0.00 0.00 0.00 58 1011.4
20260503025117 21 0.0 0.0 0.00 0.00 0.00 58 1011.3
20260503024617 21 80 1.6 3.2 0.00 0.00 0.00 57 1011.3
20260503024137 21 87 1.6 4.8 0.00 0.00 0.00 56 1011.3
20260503023618 21 0.0 0.0 0.00 0.00 0.00 57 1011.2
20260503023118 21 80 1.6 3.2 0.00 0.00 0.00 55 1011.1
20260503022618 22 2 1.6 3.2 0.00 0.00 0.00 55 1011.2
20260503022117 22 0.0 0.0 0.00 0.00 0.00 54 1011.0
20260503021617 22 79 0.0 1.6 0.00 0.00 0.00 54 1011.1
20260503021117 22 75 1.6 3.2 0.00 0.00 0.00 53 1011.2
20260503020617 22 57 3.2 6.4 0.00 0.00 0.00 51 1011.1
20260503020117 22 2 4.8 11.3 0.00 0.00 0.00 51 1011.1
20260503015637 22 63 3.2 4.8 0.00 0.00 0.00 51 1011.1
20260503015118 22 82 1.6 6.4 0.00 0.00 0.00 53 1011.1
20260503014618 22 52 3.2 4.8 0.00 0.00 0.00 51 1011.2
20260503014118 23 72 3.2 3.2 0.00 0.00 0.00 51 1011.2
20260503013617 23 0.0 0.0 0.00 0.00 0.00 52 1011.2
20260503013137 23 89 0.0 1.6 0.00 0.00 0.00 50 1011.1
20260503012637 23 84 0.0 1.6 0.00 0.00 0.00 51 1011.3
20260503012117 23 53 3.2 11.3 0.00 0.00 0.00 50 1011.2
20260503011617 23 0.0 0.0 0.00 0.00 0.00 49 1011.2
20260503011117 23 87 0.0 3.2 0.00 0.00 0.00 50 1011.1
20260503010617 23 66 1.6 3.2 0.00 0.00 0.00 48 1011.1
20260503010117 23 333 6.4 12.9 0.00 0.00 0.00 48 1011.2
20260503005618 23 79 1.6 3.2 0.00 0.00 0.00 48 1011.3
20260503005118 24 55 3.2 6.4 0.00 0.00 0.00 47 1011.3
20260503004617 24 85 1.6 1.6 0.00 0.00 0.00 48 1011.3
20260503004117 23 93 1.6 1.6 0.00 0.00 0.00 48 1011.4
20260503003617 23 326 0.0 4.8 0.00 0.00 0.00 47 1011.5
20260503003117 23 85 1.6 3.2 0.00 0.00 0.00 48 1011.4
20260503002617 23 72 1.6 4.8 0.00 0.00 0.00 48 1011.4
20260503002116 24 0.0 0.0 0.00 0.00 0.00 49 1011.3
20260503001637 23 76 0.0 1.6 0.00 0.00 0.00 49 1011.3
20260503001137 23 76 1.6 4.8 0.00 0.00 0.00 51 1011.4
20260503000618 23 45 1.6 6.4 0.00 0.00 0.00 50 1011.5
20260503000137 23 94 1.6 3.2 0.00 0.00 0.00 50 1011.5
20260502235617 23 81 1.6 4.8 0.00 0.00 0.00 51 1011.6
20260502235117 23 19 6.4 11.3 0.00 0.00 0.00 50 1011.6
20260502234617 23 42 4.8 9.7 0.00 0.00 0.00 51 1011.6
20260502234117 23 62 0.0 4.8 0.00 0.00 0.00 52 1011.7
20260502233636 23 6 8.0 14.5 0.00 0.00 0.00 51 1011.9
20260502233118 23 81 1.6 4.8 0.00 0.00 0.00 52 1012.0
20260502232617 24 85 1.6 3.2 0.00 0.00 0.00 50 1012.0
20260502232138 23 73 1.6 6.4 0.00 0.00 0.00 52 1012.0
20260502231617 23 48 3.2 6.4 0.00 0.00 0.00 53 1012.1
20260502231117 23 333 4.8 11.3 0.00 0.00 0.00 52 1012.2
20260502230617 23 64 1.6 3.2 0.00 0.00 0.00 54 1012.2
20260502230117 23 14 3.2 11.3 0.00 0.00 0.00 54 1012.3
20260502225617 23 62 3.2 6.4 0.00 0.00 0.00 55 1012.4
20260502225116 23 81 4.8 6.4 0.00 0.00 0.00 54 1012.5
20260502224637 23 59 3.2 9.7 0.00 0.00 0.00 54 1012.6
20260502224137 23 23 4.8 6.4 0.00 0.00 0.00 55 1012.6
20260502223638 23 43 4.8 6.4 0.00 0.00 0.00 54 1012.6
20260502223137 23 62 1.6 4.8 0.00 0.00 0.00 55 1012.8
20260502222617 23 72 1.6 4.8 0.00 0.00 0.00 54 1012.8
20260502222137 23 265 4.8 11.3 0.00 0.00 0.00 54 1012.9
20260502221617 22 309 3.2 9.7 0.00 0.00 0.00 55 1012.8
20260502221137 23 25 4.8 9.7 0.00 0.00 0.00 54 1012.8
20260502220617 22 24 8.0 12.9 0.00 0.00 0.00 55 1013.0
20260502220117 22 48 1.6 4.8 0.00 0.00 0.00 55 1012.9
20260502215618 23 41 1.6 4.8 0.00 0.00 0.00 55 1013.1
20260502215157 22 96 0.0 1.6 0.00 0.00 0.00 56 1013.1
20260502214617 22 75 4.8 6.4 0.00 0.00 0.00 56 1013.1
20260502214117 23 63 3.2 9.7 0.00 0.00 0.00 55 1013.3
20260502213617 22 0.0 0.0 0.00 0.00 0.00 58 1013.3
20260502213117 22 12 3.2 12.9 0.00 0.00 0.00 58 1013.4
20260502212617 22 79 1.6 3.2 0.00 0.00 0.00 58 1013.4
20260502212117 22 68 1.6 3.2 0.00 0.00 0.00 57 1013.5
20260502211617 22 96 4.8 11.3 0.00 0.00 0.00 58 1013.5